QPF
0.00 0.00 0.00 0.00 0.00 0.00 0.00 0.00 0.00 0.00 0.00 0.00 0.00 0.00 0.00 0.00 0.00 0.00 0.00 0.00 0.01 0.01 0.00 0.00 0.00 0.00 0.00 0.00 0.00 0.00 0.01 0.01 0.02 0.03 0.04 0.05 0.05 0.05 0.05 0.05 0.04 0.04 0.04
0.00 0.00 0.00 0.00 0.00 0.00 0.00 0.00 0.00 0.00 0.00 0.00 0.00 0.00 0.00 0.00 0.00 0.00 0.00 0.00 0.01 0.01 0.00 0.00 0.00 0.00 0.00 0.00 0.00 0.00 0.01 0.01 0.02 0.03 0.04 0.05 0.06 0.05 0.04 0.04 0.04 0.04 0.05
0.00 0.00 0.00 0.00 0.00 0.00 0.00 0.00 0.00 0.00 0.00 0.00 0.00 0.00 0.00 0.00 0.00 0.01 0.01 0.01 0.01 0.01 0.01 0.01 0.00 0.00 0.00 0.00 0.00 0.00 0.01 0.02 0.02 0.04 0.05 0.04 0.04 0.04 0.03 0.03 0.03 0.03 0.03
0.00 0.00 0.00 0.00 0.00 0.00 0.00 0.00 0.00 0.00 0.00 0.00 0.00 0.00 0.00 0.00 0.00 0.00 0.01 0.01 0.01 0.01 0.01 0.01 0.01 0.01 0.00 0.00 0.00 0.00 0.01 0.02 0.03 0.04 0.04 0.05 0.04 0.04 0.03 0.02 0.02 0.03 0.03
0.00 0.00 0.00 0.00 0.00 0.00 0.00 0.00 0.00 0.00 0.00 0.00 0.00 0.00 0.00 0.00 0.00 0.01 0.01 0.01 0.01 0.01 0.01 0.01 0.01 0.01 0.00 0.00 0.00 0.01 0.01 0.02 0.02 0.03 0.03 0.04 0.04 0.03 0.03 0.03 0.03 0.03 0.03
0.00 0.00 0.00 0.00 0.00 0.00 0.00 0.00 0.00 0.00 0.00 0.00 0.00 0.00 0.00 0.00 0.01 0.01 0.01 0.01 0.01 0.01 0.01 0.01 0.01 0.01 0.00 0.00 0.00 0.01 0.02 0.02 0.02 0.02 0.03 0.04 0.03 0.03 0.03 0.03 0.03 0.03 0.03
0.00 0.00 0.00 0.00 0.00 0.00 0.00 0.00 0.00 0.00 0.00 0.00 0.00 0.00 0.00 0.00 0.01 0.01 0.01 0.01 0.01 0.01 0.02 0.02 0.01 0.01 0.00 0.01 0.01 0.01 0.02 0.02 0.02 0.02 0.03 0.03 0.02 0.02 0.03 0.04 0.04 0.03 0.03
0.00 0.00 0.00 0.00 0.00 0.00 0.00 0.00 0.00 0.00 0.00 0.00 0.00 0.01 0.01 0.01 0.01 0.01 0.01 0.01 0.01 0.01 0.01 0.03 0.02 0.01 0.01 0.01 0.01 0.02 0.02 0.03 0.03 0.03 0.03 0.02 0.02 0.02 0.02 0.02 0.03 0.04 0.03
0.00 0.00 0.00 0.00 0.00 0.00 0.00 0.00 0.00 0.00 0.00 0.00 0.00 0.00 0.01 0.01 0.01 0.01 0.01 0.01 0.01 0.01 0.01 0.03 0.04 0.02 0.01 0.02 0.02 0.02 0.03 0.04 0.04 0.03 0.03 0.02 0.01 0.01 0.01 0.01 0.02 0.03 0.04
0.00 0.00 0.00 0.00 0.00 0.00 0.00 0.00 0.00 0.00 0.00 0.00 0.00 0.01 0.01 0.01 0.02 0.02 0.01 0.01 0.01 0.01 0.01 0.02 0.04 0.03 0.03 0.03 0.03 0.03 0.04 0.04 0.03 0.02 0.01 0.01 0.01 0.01 0.01 0.01 0.01 0.02 0.03
0.00 0.00 0.00 0.00 0.00 0.00 0.00 0.00 0.00 0.00 0.00 0.00 0.00 0.01 0.01 0.01 0.03 0.02 0.01 0.01 0.01 0.01 0.01 0.01 0.02 0.03 0.03 0.02 0.02 0.03 0.04 0.04 0.02 0.01 0.01 0.01 0.01 0.01 0.01 0.01 0.02 0.02 0.03
0.00 0.00 0.00 0.00 0.00 0.00 0.01 0.01 0.01 0.00 0.00 0.00 0.00 0.01 0.02 0.02 0.03 0.03 0.01 0.01 0.00 0.00 0.01 0.01 0.01 0.02 0.02 0.01 0.01 0.02 0.02 0.01 0.01 0.01 0.01 0.01 0.01 0.01 0.01 0.01 0.01 0.01 0.02
0.00 0.00 0.00 0.00 0.00 0.01 0.01 0.01 0.01 0.00 0.00 0.00 0.00 0.01 0.02 0.02 0.05 0.03 0.01 0.00 0.00 0.00 0.01 0.01 0.01 0.01 0.01 0.01 0.01 0.01 0.01 0.01 0.01 0.01 0.01 0.01 0.01 0.01 0.01 0.01 0.01 0.02 0.02
0.00 0.00 0.00 0.00 0.00 0.01 0.01 0.01 0.00 0.00 0.00 0.00 0.01 0.01 0.02 0.02 0.03 0.01 0.00 0.00 0.00 0.00 0.00 0.01 0.00 0.01 0.01 0.00 0.00 0.01 0.01 0.01 0.01 0.01 0.01 0.01 0.01 0.01 0.01 0.02 0.02 0.02 0.02
0.00 0.00 0.00 0.00 0.01 0.01 0.01 0.01 0.00 0.00 0.00 0.01 0.01 0.01 0.01 0.01 0.01 0.01 0.01 0.01 0.01 0.00 0.00 0.00 0.00 0.00 0.00 0.01 0.01 0.01 0.01 0.01 0.01 0.01 0.00 0.01 0.01 0.02 0.02 0.02 0.02 0.02 0.03
0.00 0.00 0.00 0.00 0.00 0.00 0.01 0.01 0.01 0.01 0.01 0.01 0.00 0.00 0.00 0.01 0.01 0.01 0.01 0.01 0.01 0.01 0.01 0.01 0.01 0.01 0.01 0.01 0.01 0.01 0.02 0.01 0.01 0.01 0.01 0.01 0.01 0.01 0.02 0.02 0.02 0.03 0.04
0.00 0.00 0.00 0.00 0.00 0.00 0.00 0.01 0.01 0.02 0.02 0.02 0.01 0.01 0.02 0.02 0.01 0.01 0.02 0.02 0.02 0.02 0.01 0.02 0.01 0.01 0.01 0.01 0.01 0.02 0.02 0.02 0.02 0.01 0.02 0.02 0.01 0.01 0.02 0.02 0.02 0.02 0.03
0.00 0.00 0.00 0.00 0.00 0.00 0.00 0.00 0.01 0.02 0.02 0.02 0.02 0.02 0.03 0.03 0.02 0.02 0.02 0.03 0.03 0.03 0.03 0.03 0.03 0.02 0.02 0.02 0.02 0.02 0.02 0.02 0.02 0.01 0.01 0.01 0.01 0.02 0.02 0.02 0.02 0.02 0.02
0.00 0.00 0.00 0.00 0.00 0.00 0.00 0.00 0.00 0.01 0.02 0.02 0.02 0.02 0.02 0.02 0.02 0.02 0.02 0.03 0.03 0.04 0.04 0.04 0.04 0.04 0.04 0.04 0.03 0.03 0.02 0.02 0.02 0.02 0.01 0.01 0.01 0.01 0.02 0.02 0.03 0.03 0.02
0.00 0.00 0.00 0.00 0.00 0.00 0.00 0.00 0.00 0.00 0.00 0.01 0.01 0.02 0.02 0.02 0.02 0.02 0.02 0.02 0.03 0.03 0.04 0.04 0.04 0.03 0.03 0.03 0.03 0.03 0.02 0.02 0.02 0.01 0.01 0.02 0.02 0.02 0.02 0.02 0.03 0.03 0.03
0.00 0.00 0.00 0.00 0.00 0.00 0.00 0.00 0.00 0.00 0.00 0.00 0.00 0.00 0.01 0.01 0.02 0.02 0.02 0.02 0.02 0.03 0.04 0.04 0.04 0.03 0.02 0.02 0.02 0.03 0.02 0.02 0.02 0.02 0.01 0.01 0.02 0.02 0.01 0.02 0.02 0.02 0.02
0.00 0.00 0.00 0.00 0.00 0.00 0.00 0.00 0.00 0.00 0.00 0.00 0.00 0.00 0.00 0.00 0.01 0.01 0.01 0.02 0.02 0.02 0.03 0.03 0.03 0.02 0.02 0.02 0.02 0.03 0.03 0.03 0.02 0.02 0.01 0.01 0.02 0.01 0.01 0.02 0.02 0.02 0.02
0.00 0.00 0.00 0.00 0.00 0.00 0.00 0.00 0.00 0.00 0.00 0.00 0.00 0.00 0.01 0.01 0.01 0.01 0.01 0.01 0.02 0.01 0.02 0.02 0.02 0.01 0.01 0.02 0.03 0.03 0.03 0.03 0.02 0.02 0.02 0.02 0.02 0.02 0.02 0.02 0.02 0.03 0.03
0.00 0.00 0.00 0.00 0.00 0.00 0.00 0.00 0.00 0.00 0.00 0.00 0.00 0.01 0.01 0.01 0.01 0.01 0.01 0.01 0.01 0.01 0.01 0.01 0.01 0.01 0.02 0.02 0.02 0.02 0.03 0.03 0.03 0.02 0.02 0.02 0.02 0.01 0.01 0.01 0.01 0.02 0.04
0.01 0.01 0.01 0.01 0.00 0.00 0.00 0.00 0.00 0.00 0.00 0.00 0.00 0.00 0.01 0.01 0.01 0.01 0.01 0.01 0.01 0.01 0.02 0.02 0.02 0.02 0.02 0.02 0.02 0.02 0.02 0.02 0.03 0.03 0.03 0.02 0.02 0.01 0.01 0.01 0.01 0.03 0.04
0.01 0.01 0.01 0.01 0.01 0.01 0.01 0.01 0.01 0.01 0.00 0.00 0.00 0.01 0.01 0.01 0.01 0.01 0.01 0.01 0.01 0.02 0.02 0.02 0.02 0.02 0.02 0.02 0.02 0.02 0.02 0.02 0.03 0.02 0.02 0.02 0.01 0.01 0.01 0.01 0.02 0.03 0.04
MSLP
1020.44 1020.61 1020.74 1020.79 1020.75 1020.60 1020.33 1019.97 1019.52 1019.04 1018.54 1018.04 1017.58 1017.14 1016.72 1016.32 1015.89 1015.44 1014.94 1014.40 1013.83 1013.23 1012.62 1012.04 1011.50 1011.01 1010.57 1010.18 1009.82 1009.49 1009.15 1008.81 1008.43 1008.03 1007.59 1007.12 1006.63 1006.12 1005.60 1005.09 1004.61 1004.17 1003.78
1020.81 1020.96 1021.07 1021.11 1021.06 1020.89 1020.61 1020.24 1019.77 1019.26 1018.72 1018.19 1017.68 1017.19 1016.72 1016.27 1015.80 1015.31 1014.79 1014.23 1013.64 1013.04 1012.43 1011.85 1011.30 1010.80 1010.35 1009.94 1009.56 1009.20 1008.85 1008.48 1008.09 1007.67 1007.21 1006.72 1006.20 1005.66 1005.10 1004.55 1004.02 1003.54 1003.10
1021.22 1021.34 1021.40 1021.41 1021.32 1021.14 1020.85 1020.47 1019.99 1019.47 1018.91 1018.34 1017.78 1017.24 1016.70 1016.18 1015.66 1015.12 1014.56 1013.99 1013.40 1012.80 1012.22 1011.65 1011.12 1010.62 1010.17 1009.74 1009.35 1008.96 1008.58 1008.18 1007.77 1007.32 1006.85 1006.35 1005.81 1005.25 1004.68 1004.11 1003.56 1003.03 1002.56
1021.63 1021.68 1021.69 1021.64 1021.52 1021.30 1021.00 1020.61 1020.15 1019.62 1019.05 1018.46 1017.85 1017.25 1016.65 1016.06 1015.47 1014.87 1014.28 1013.68 1013.09 1012.51 1011.95 1011.41 1010.90 1010.42 1009.97 1009.54 1009.12 1008.71 1008.29 1007.87 1007.42 1006.96 1006.48 1005.97 1005.45 1004.90 1004.35 1003.78 1003.23 1002.69 1002.19
1021.98 1021.96 1021.90 1021.79 1021.62 1021.38 1021.07 1020.68 1020.22 1019.71 1019.14 1018.53 1017.89 1017.24 1016.57 1015.91 1015.25 1014.60 1013.96 1013.34 1012.74 1012.17 1011.62 1011.10 1010.62 1010.15 1009.70 1009.26 1008.82 1008.38 1007.93 1007.48 1007.02 1006.54 1006.07 1005.58 1005.08 1004.58 1004.07 1003.54 1003.02 1002.50 1001.99
1022.24 1022.17 1022.05 1021.88 1021.66 1021.40 1021.07 1020.69 1020.25 1019.75 1019.19 1018.57 1017.91 1017.22 1016.50 1015.78 1015.05 1014.34 1013.66 1013.00 1012.39 1011.81 1011.26 1010.75 1010.27 1009.80 1009.34 1008.88 1008.42 1007.94 1007.46 1006.98 1006.51 1006.04 1005.58 1005.13 1004.69 1004.25 1003.81 1003.35 1002.89 1002.41 1001.92
1022.45 1022.34 1022.17 1021.96 1021.70 1021.41 1021.08 1020.71 1020.27 1019.79 1019.23 1018.62 1017.94 1017.22 1016.47 1015.69 1014.91 1014.16 1013.43 1012.74 1012.09 1011.49 1010.93 1010.40 1009.90 1009.40 1008.91 1008.41 1007.91 1007.39 1006.88 1006.38 1005.89 1005.43 1005.00 1004.60 1004.22 1003.87 1003.52 1003.16 1002.78 1002.36 1001.91
1022.62 1022.50 1022.32 1022.08 1021.80 1021.49 1021.15 1020.77 1020.34 1019.86 1019.30 1018.69 1018.00 1017.26 1016.48 1015.67 1014.86 1014.07 1013.31 1012.58 1011.91 1011.27 1010.67 1010.11 1009.55 1009.01 1008.46 1007.90 1007.34 1006.77 1006.22 1005.68 1005.18 1004.73 1004.33 1003.99 1003.69 1003.42 1003.17 1002.91 1002.62 1002.29 1001.90
1022.80 1022.70 1022.51 1022.27 1021.99 1021.67 1021.31 1020.92 1020.48 1019.98 1019.41 1018.78 1018.08 1017.33 1016.53 1015.72 1014.90 1014.09 1013.31 1012.57 1011.86 1011.19 1010.54 1009.92 1009.30 1008.68 1008.05 1007.41 1006.77 1006.14 1005.54 1004.97 1004.45 1004.00 1003.63 1003.33 1003.09 1002.91 1002.75 1002.59 1002.40 1002.15 1001.83
1022.99 1022.93 1022.78 1022.56 1022.28 1021.95 1021.58 1021.16 1020.68 1020.15 1019.55 1018.89 1018.17 1017.41 1016.61 1015.80 1014.99 1014.20 1013.43 1012.68 1011.96 1011.26 1010.57 1009.87 1009.17 1008.46 1007.74 1007.02 1006.29 1005.59 1004.92 1004.31 1003.77 1003.32 1002.95 1002.68 1002.49 1002.37 1002.28 1002.19 1002.08 1001.92 1001.67
1023.18 1023.19 1023.10 1022.91 1022.65 1022.31 1021.92 1021.45 1020.93 1020.34 1019.69 1018.99 1018.25 1017.47 1016.68 1015.89 1015.11 1014.35 1013.62 1012.90 1012.18 1011.47 1010.74 1009.99 1009.21 1008.42 1007.60 1006.78 1005.98 1005.20 1004.47 1003.81 1003.24 1002.77 1002.40 1002.13 1001.96 1001.86 1001.81 1001.77 1001.71 1001.60 1001.42
1023.35 1023.44 1023.41 1023.27 1023.03 1022.69 1022.27 1021.76 1021.17 1020.52 1019.81 1019.06 1018.28 1017.49 1016.71 1015.96 1015.23 1014.53 1013.84 1013.17 1012.48 1011.77 1011.03 1010.23 1009.40 1008.53 1007.64 1006.75 1005.87 1005.02 1004.24 1003.54 1002.93 1002.43 1002.04 1001.76 1001.57 1001.46 1001.41 1001.38 1001.34 1001.26 1001.11
1023.47 1023.63 1023.67 1023.58 1023.36 1023.03 1022.58 1022.03 1021.38 1020.66 1019.89 1019.08 1018.27 1017.47 1016.71 1016.00 1015.32 1014.69 1014.08 1013.46 1012.82 1012.14 1011.40 1010.59 1009.73 1008.81 1007.87 1006.92 1005.98 1005.10 1004.27 1003.54 1002.90 1002.37 1001.94 1001.62 1001.40 1001.25 1001.16 1001.10 1001.04 1000.94 1000.80
1023.53 1023.75 1023.84 1023.80 1023.61 1023.28 1022.82 1022.23 1021.54 1020.76 1019.93 1019.09 1018.25 1017.45 1016.71 1016.04 1015.43 1014.86 1014.32 1013.77 1013.19 1012.54 1011.83 1011.03 1010.15 1009.22 1008.26 1007.28 1006.33 1005.42 1004.58 1003.82 1003.16 1002.60 1002.13 1001.77 1001.48 1001.27 1001.11 1000.98 1000.87 1000.73 1000.56
1023.53 1023.80 1023.93 1023.92 1023.76 1023.44 1022.97 1022.37 1021.64 1020.84 1019.98 1019.11 1018.26 1017.47 1016.75 1016.12 1015.57 1015.06 1014.59 1014.10 1013.58 1012.98 1012.30 1011.52 1010.66 1009.74 1008.79 1007.82 1006.88 1005.98 1005.14 1004.39 1003.71 1003.13 1002.62 1002.20 1001.84 1001.55 1001.30 1001.09 1000.88 1000.67 1000.45
1023.50 1023.79 1023.95 1023.96 1023.82 1023.52 1023.06 1022.46 1021.73 1020.91 1020.05 1019.18 1018.35 1017.58 1016.89 1016.30 1015.80 1015.34 1014.92 1014.48 1014.00 1013.45 1012.80 1012.06 1011.24 1010.35 1009.43 1008.50 1007.59 1006.73 1005.92 1005.18 1004.51 1003.91 1003.37 1002.89 1002.47 1002.08 1001.74 1001.42 1001.12 1000.83 1000.53
1023.49 1023.78 1023.95 1023.97 1023.84 1023.55 1023.11 1022.52 1021.82 1021.02 1020.19 1019.35 1018.55 1017.82 1017.17 1016.61 1016.14 1015.73 1015.34 1014.93 1014.48 1013.96 1013.35 1012.65 1011.87 1011.03 1010.16 1009.29 1008.44 1007.63 1006.87 1006.16 1005.51 1004.90 1004.34 1003.81 1003.31 1002.85 1002.41 1001.99 1001.60 1001.21 1000.83
1023.53 1023.81 1023.96 1023.97 1023.85 1023.57 1023.15 1022.59 1021.92 1021.18 1020.40 1019.61 1018.86 1018.18 1017.57 1017.05 1016.61 1016.22 1015.85 1015.46 1015.03 1014.52 1013.94 1013.27 1012.54 1011.76 1010.95 1010.15 1009.37 1008.62 1007.92 1007.26 1006.63 1006.02 1005.44 1004.88 1004.33 1003.79 1003.27 1002.77 1002.29 1001.83 1001.38
1023.65 1023.90 1024.02 1024.02 1023.88 1023.60 1023.19 1022.67 1022.05 1021.36 1020.65 1019.93 1019.25 1018.62 1018.07 1017.59 1017.17 1016.79 1016.43 1016.04 1015.62 1015.12 1014.56 1013.92 1013.24 1012.51 1011.77 1011.05 1010.34 1009.66 1009.01 1008.40 1007.80 1007.20 1006.61 1006.02 1005.43 1004.85 1004.27 1003.72 1003.18 1002.66 1002.16
1023.84 1024.06 1024.14 1024.11 1023.94 1023.66 1023.26 1022.76 1022.19 1021.56 1020.91 1020.27 1019.65 1019.09 1018.59 1018.15 1017.76 1017.40 1017.04 1016.65 1016.22 1015.74 1015.19 1014.59 1013.94 1013.27 1012.59 1011.93 1011.29 1010.68 1010.09 1009.52 1008.95 1008.37 1007.78 1007.18 1006.57 1005.96 1005.35 1004.76 1004.19 1003.65 1003.13
1024.09 1024.27 1024.31 1024.24 1024.04 1023.74 1023.34 1022.86 1022.32 1021.74 1021.15 1020.58 1020.03 1019.53 1019.09 1018.69 1018.32 1017.98 1017.62 1017.24 1016.82 1016.34 1015.81 1015.23 1014.62 1014.00 1013.38 1012.78 1012.20 1011.64 1011.11 1010.57 1010.03 1009.47 1008.89 1008.29 1007.68 1007.06 1006.45 1005.85 1005.28 1004.74 1004.22
1024.35 1024.50 1024.51 1024.40 1024.17 1023.84 1023.43 1022.96 1022.44 1021.89 1021.35 1020.83 1020.35 1019.91 1019.51 1019.15 1018.82 1018.50 1018.16 1017.79 1017.37 1016.91 1016.39 1015.84 1015.26 1014.68 1014.11 1013.55 1013.02 1012.51 1012.02 1011.52 1011.00 1010.47 1009.91 1009.32 1008.72 1008.11 1007.51 1006.94 1006.39 1005.87 1005.37
1024.60 1024.73 1024.73 1024.59 1024.33 1023.98 1023.55 1023.07 1022.56 1022.04 1021.53 1021.05 1020.61 1020.21 1019.86 1019.54 1019.24 1018.95 1018.63 1018.28 1017.88 1017.43 1016.93 1016.40 1015.85 1015.30 1014.76 1014.24 1013.75 1013.27 1012.81 1012.34 1011.85 1011.34 1010.81 1010.25 1009.67 1009.09 1008.52 1007.97 1007.46 1006.97 1006.52
1024.81 1024.95 1024.94 1024.79 1024.52 1024.16 1023.72 1023.24 1022.72 1022.21 1021.71 1021.25 1020.84 1020.48 1020.16 1019.88 1019.61 1019.35 1019.06 1018.73 1018.35 1017.92 1017.45 1016.93 1016.40 1015.87 1015.35 1014.86 1014.39 1013.93 1013.49 1013.05 1012.60 1012.12 1011.61 1011.08 1010.53 1009.98 1009.45 1008.94 1008.46 1008.02 1007.60
1024.98 1025.14 1025.15 1025.02 1024.76 1024.40 1023.97 1023.48 1022.96 1022.44 1021.95 1021.49 1021.09 1020.75 1020.46 1020.20 1019.97 1019.73 1019.48 1019.17 1018.82 1018.41 1017.95 1017.45 1016.93 1016.41 1015.90 1015.41 1014.95 1014.52 1014.10 1013.68 1013.26 1012.81 1012.34 1011.84 1011.33 1010.82 1010.32 1009.84 1009.39 1008.97 1008.58
1025.11 1025.32 1025.36 1025.27 1025.05 1024.71 1024.29 1023.80 1023.28 1022.76 1022.26 1021.81 1021.41 1021.07 1020.79 1020.56 1020.35 1020.14 1019.91 1019.64 1019.30 1018.91 1018.47 1017.98 1017.46 1016.94 1016.43 1015.95 1015.49 1015.07 1014.67 1014.28 1013.88 1013.47 1013.04 1012.58 1012.10 1011.62 1011.14 1010.68 1010.24 1009.83 1009.44
Thickness
5655 5654 5653 5650 5647 5644 5641 5638 5635 5633 5631 5629 5627 5625 5623 5622 5622 5621 5620 5619 5618 5616 5615 5614 5613 5612 5610 5609 5607 5606 5604 5603 5603 5602 5605 5608 5611 5612 5611 5611 5610 5610 5610
5649 5649 5647 5644 5641 5638 5635 5632 5630 5627 5625 5623 5621 5618 5616 5615 5614 5612 5611 5610 5609 5608 5607 5605 5604 5602 5601 5599 5597 5594 5592 5590 5588 5586 5587 5591 5596 5600 5601 5600 5599 5600 5599
5645 5643 5641 5638 5635 5633 5630 5628 5624 5622 5619 5616 5613 5611 5608 5606 5604 5603 5602 5602 5601 5600 5598 5597 5595 5593 5591 5588 5586 5583 5580 5577 5576 5574 5571 5571 5576 5582 5588 5589 5589 5588 5587
5642 5640 5637 5634 5630 5628 5625 5622 5619 5616 5612 5609 5606 5603 5599 5597 5596 5595 5594 5593 5592 5591 5590 5588 5586 5584 5582 5578 5575 5573 5570 5567 5564 5563 5562 5560 5560 5561 5569 5575 5575 5575 5574
5637 5635 5633 5630 5626 5622 5618 5616 5612 5609 5606 5602 5599 5596 5592 5590 5589 5588 5586 5585 5584 5583 5581 5579 5577 5575 5572 5569 5566 5563 5560 5557 5554 5552 5550 5549 5549 5548 5548 5557 5562 5562 5562
5631 5629 5627 5624 5620 5615 5612 5609 5606 5602 5599 5595 5592 5589 5586 5583 5581 5580 5578 5577 5576 5574 5573 5571 5569 5566 5563 5560 5557 5554 5551 5548 5545 5543 5541 5539 5538 5537 5535 5538 5544 5548 5550
5623 5621 5620 5617 5613 5609 5605 5602 5599 5595 5592 5589 5585 5582 5579 5577 5575 5573 5571 5569 5567 5566 5565 5563 5560 5558 5555 5552 5548 5545 5542 5539 5536 5534 5532 5531 5530 5528 5526 5524 5527 5531 5537
5615 5614 5613 5610 5606 5603 5599 5595 5592 5589 5586 5582 5579 5575 5573 5570 5568 5566 5564 5562 5560 5558 5557 5554 5552 5549 5547 5544 5541 5537 5534 5531 5528 5526 5524 5522 5521 5518 5515 5512 5511 5514 5522
5606 5606 5605 5603 5599 5595 5592 5589 5586 5583 5579 5576 5572 5569 5566 5564 5562 5560 5557 5554 5552 5550 5548 5546 5543 5541 5539 5536 5533 5530 5527 5524 5521 5518 5516 5513 5512 5509 5506 5503 5498 5495 5500
5596 5596 5596 5594 5592 5588 5585 5581 5578 5576 5573 5569 5566 5563 5560 5558 5555 5552 5549 5546 5544 5542 5540 5538 5535 5533 5531 5528 5525 5522 5519 5516 5513 5510 5508 5505 5503 5500 5497 5494 5490 5485 5483
5585 5585 5585 5584 5582 5579 5576 5573 5570 5568 5565 5562 5559 5556 5553 5550 5548 5544 5541 5539 5536 5534 5532 5530 5527 5525 5523 5520 5517 5514 5512 5508 5505 5502 5500 5497 5494 5491 5488 5484 5481 5477 5473
5574 5574 5574 5573 5571 5569 5567 5565 5562 5559 5557 5555 5552 5549 5545 5542 5539 5536 5534 5531 5528 5526 5523 5521 5519 5517 5515 5512 5509 5506 5504 5500 5497 5494 5491 5488 5485 5482 5478 5474 5471 5468 5464
5563 5562 5562 5562 5561 5560 5558 5556 5553 5551 5549 5547 5543 5540 5537 5534 5531 5528 5526 5523 5520 5517 5515 5513 5511 5509 5507 5504 5501 5498 5496 5493 5489 5485 5482 5479 5475 5472 5469 5465 5461 5459 5457
5552 5552 5551 5551 5551 5550 5548 5546 5544 5542 5540 5538 5534 5531 5528 5525 5522 5520 5517 5514 5512 5509 5506 5504 5502 5500 5498 5495 5492 5490 5488 5484 5481 5477 5474 5470 5466 5463 5460 5457 5454 5451 5449
5542 5542 5540 5540 5539 5539 5537 5536 5534 5532 5530 5527 5524 5521 5519 5516 5513 5510 5508 5505 5503 5501 5498 5495 5493 5491 5488 5487 5484 5481 5479 5476 5473 5470 5467 5463 5459 5456 5453 5450 5447 5444 5442
5530 5531 5531 5531 5529 5528 5527 5525 5523 5522 5520 5517 5513 5511 5509 5506 5504 5501 5499 5496 5493 5491 5488 5486 5483 5482 5480 5478 5476 5472 5469 5468 5465 5463 5461 5457 5454 5451 5448 5445 5442 5438 5435
5519 5519 5519 5518 5518 5518 5517 5514 5513 5511 5509 5506 5504 5501 5499 5496 5494 5492 5489 5486 5484 5481 5479 5477 5474 5473 5471 5469 5467 5464 5461 5459 5457 5454 5453 5451 5449 5445 5442 5440 5438 5434 5431
5508 5508 5507 5507 5507 5507 5506 5504 5503 5500 5498 5495 5493 5491 5488 5486 5484 5481 5478 5476 5475 5472 5470 5468 5466 5464 5463 5461 5458 5456 5453 5451 5449 5447 5445 5443 5442 5439 5436 5434 5432 5430 5427
5496 5497 5497 5497 5497 5496 5496 5494 5492 5489 5487 5484 5482 5480 5478 5475 5473 5470 5468 5467 5465 5463 5461 5460 5458 5456 5455 5453 5450 5448 5445 5444 5442 5441 5439 5437 5436 5434 5432 5429 5427 5425 5424
5485 5486 5486 5486 5486 5486 5485 5483 5481 5478 5475 5473 5471 5470 5468 5466 5463 5461 5459 5457 5456 5454 5453 5452 5450 5448 5447 5445 5442 5440 5438 5437 5436 5436 5434 5432 5430 5429 5426 5423 5421 5420 5419
5474 5475 5475 5474 5475 5475 5475 5472 5470 5467 5464 5462 5461 5459 5458 5455 5454 5452 5449 5447 5446 5444 5443 5442 5441 5440 5438 5437 5435 5433 5431 5429 5429 5430 5429 5427 5425 5423 5421 5419 5416 5414 5413
5462 5462 5462 5462 5463 5463 5462 5460 5457 5456 5454 5452 5451 5449 5447 5446 5445 5442 5440 5438 5436 5435 5433 5433 5432 5431 5430 5429 5428 5427 5425 5423 5422 5423 5422 5421 5420 5418 5416 5414 5412 5410 5408
5448 5449 5449 5450 5450 5450 5449 5447 5446 5445 5444 5443 5441 5439 5437 5436 5434 5432 5430 5428 5427 5425 5424 5423 5423 5423 5422 5420 5420 5419 5418 5417 5416 5415 5415 5414 5413 5411 5410 5408 5407 5404 5401
5435 5436 5436 5437 5437 5437 5436 5435 5435 5435 5434 5433 5431 5430 5428 5426 5425 5423 5421 5419 5417 5416 5415 5414 5414 5413 5413 5413 5412 5412 5411 5411 5410 5408 5408 5407 5406 5404 5402 5401 5399 5396 5394
5422 5423 5423 5423 5424 5425 5424 5424 5424 5424 5423 5422 5421 5420 5419 5417 5415 5413 5411 5409 5408 5407 5406 5406 5405 5405 5406 5406 5406 5404 5405 5404 5403 5402 5401 5400 5398 5397 5394 5393 5391 5390 5388
5409 5409 5410 5411 5412 5413 5413 5413 5413 5414 5413 5412 5411 5410 5409 5408 5406 5404 5403 5402 5401 5401 5400 5399 5399 5399 5399 5399 5400 5399 5399 5398 5397 5395 5393 5391 5389 5387 5386 5385 5385 5384 5383